Tracking 25710 objects as of 5-Jul-2022
HD Live streaming from Space Station
objects crossing your sky now

FENGYUN 1C DEB

Track FENGYUN 1C DEB now!
10-day predictions


NORAD ID: 30441
Int'l Code: 1999-025AFC
Perigee: 849.3 km
Apogee: 1,125.4 km
Inclination: 99.1 °
Period: 104.7 minutes
Semi major axis: 7358 km
RCS: 0.038 m2 (small)
Launch date: May 10, 1999
Source: People's Republic of China (PRC)
Launch site: Taiyaun Space Center, China (TSC)

Note: This is SATELLITE DEBRIS
aabbcc
Your satellite tracking list
Your tracking list is empty




NASA's NSSDC Master Catalog

Two Line Element Set (TLE):
1 30441U 99025AFC 22185.82635959  .00000174  00000-0  19792-3 0  9995
2 30441  99.0839 310.7826 0187622 345.7070  13.8816 13.75415805775781
Source of the keplerian elements: AFSPC